Location: Arroyo de Valdeoliva
(40.1604°N, 4.9878°W)
Time: 05:16:51
(UTC+00:00)

Cosmos 1782 - Pass Details

Date: 11 December 2025
Orbit: 464 x 476 km, 82.5° (Epoch: 13 January)

Event Time Altitude Azimuth Distance (km) Brightness Sun altitude
Rises 17:19:06 0° 195° (SSW) 2,519 6.9 -5.0°
Reaches altitude 10° 17:21:13 10° 199° (SSW) 1,644 6.0 -5.4°
Maximum altitude 17:24:45 57° 279° (W) 564 3.2 -6.0°
Drops below altitude 10° 17:28:19 10° 359° (N) 1,651 5.0 -6.6°
Sets 17:30:26 0° 4° (N) 2,532 5.9 -7.0°
